Theta_e
318 319 320 317 318 317 318 320 320 318 316 318 317 316 316 320 320 320 320 321 321 321 321 321 322 322 323 324 325 325 325 325 326 328 329 330 329 328 326 324 322 319 318 319
319 317 315 316 317 320 320 320 319 317 316 316 315 315 313 315 315 317 317 318 318 319 320 319 319 320 321 322 323 324 325 325 324 325 326 328 328 329 328 327 325 323 321 320
315 314 315 316 317 319 319 319 319 319 316 314 313 315 313 312 314 315 316 316 316 316 317 317 317 317 320 322 322 323 323 324 324 324 326 328 330 329 329 328 327 326 325 323
315 314 316 316 317 317 319 317 318 319 316 316 313 316 312 313 312 311 313 313 314 315 316 317 318 318 318 318 319 319 322 323 324 324 324 325 325 325 324 325 327 327 327 326
312 314 314 317 317 316 318 316 318 317 316 315 314 314 312 311 311 310 311 314 317 316 317 317 317 318 317 318 319 320 320 320 321 323 324 324 325 325 325 326 327 327 327 326
310 313 312 313 314 314 315 316 317 315 315 318 314 313 311 310 311 310 311 314 319 319 319 318 317 318 316 317 319 320 322 322 322 322 323 324 324 324 325 325 326 325 325 326
313 312 311 313 314 313 316 317 312 313 318 315 311 314 313 311 311 309 312 315 317 318 319 315 315 315 315 315 316 316 316 314 314 320 323 323 324 326 326 325 326 326 326 326
311 313 312 312 314 314 314 316 310 311 314 313 312 315 314 311 312 314 313 313 315 315 314 315 315 315 315 314 314 315 315 315 316 314 313 319 324 325 326 326 326 327 327 327
309 309 309 311 314 314 315 316 311 312 305 312 312 311 311 312 311 313 314 315 312 312 315 316 316 315 315 315 314 314 314 314 314 314 315 312 314 319 322 323 325 326 327 328
309 310 309 311 314 313 315 313 317 310 311 314 312 312 313 312 313 311 311 315 314 312 315 315 315 315 314 314 314 314 313 313 313 313 314 314 312 309 312 320 323 325 326 328
309 309 310 311 313 315 314 315 314 313 309 312 310 309 306 311 310 309 309 313 313 313 314 314 314 314 314 313 312 311 311 311 311 312 313 313 314 314 314 309 310 315 319 322
310 310 308 311 311 310 313 314 314 315 312 309 312 311 310 309 310 309 310 313 315 315 314 314 314 313 312 311 310 310 310 310 309 310 311 312 313 314 314 313 311 308 311 316
310 309 308 305 310 310 312 312 313 312 310 312 311 312 307 307 310 312 314 314 314 313 312 312 312 312 311 309 308 308 309 309 309 309 309 311 312 313 313 310 308 308 307 312
310 308 309 309 310 310 312 312 312 313 314 313 312 311 309 310 309 311 313 314 314 313 313 312 311 309 308 308 308 308 308 308 309 309 310 311 311 312 311 309 308 308 307 308
310 310 308 308 310 311 311 312 311 312 313 312 312 312 311 309 310 308 313 313 313 313 313 313 311 309 309 309 308 308 307 307 308 309 310 310 310 311 309 307 307 307 307 307
310 302 308 303 308 309 307 310 310 312 312 312 312 311 310 310 310 310 311 312 312 312 311 310 310 308 308 308 308 308 308 307 306 307 308 308 309 309 308 307 307 307 307 308
310 307 305 310 308 306 311 309 309 310 309 312 312 312 311 309 309 311 312 311 310 309 307 305 305 305 306 307 307 307 307 307 306 306 306 307 308 308 307 306 306 307 307 307
310 310 309 308 307 312 309 306 308 308 309 309 310 310 309 309 311 311 311 311 310 307 304 303 303 304 305 306 306 306 306 307 307 306 306 306 307 307 307 305 305 306 307 307
309 310 312 310 311 305 305 303 304 305 307 307 309 309 309 309 309 305 306 307 306 304 303 304 304 304 304 305 305 305 305 305 305 306 306 305 304 306 306 307 306 305 306 307
307 310 311 305 311 308 307 303 305 304 306 304 306 307 307 305 307 306 305 303 303 302 302 302 302 303 302 303 303 304 304 304 305 305 305 304 304 303 304 304 305 305 304 307
309 309 310 311 307 304 301 303 306 305 305 305 305 305 305 305 307 308 304 302 301 301 301 300 299 300 300 300 300 301 301 302 303 304 304 305 304 303 302 303 303 304 304 305
308 309 309 309 309 308 301 304 307 305 305 306 306 305 305 305 303 302 301 301 300 298 298 298 298 298 298 298 299 299 299 299 300 301 302 303 304 304 304 302 302 303 303 303
308 306 307 308 307 302 304 305 307 307 306 305 306 304 305 302 300 299 299 298 297 297 297 297 298 297 297 297 296 297 297 297 298 298 299 300 301 302 302 303 304 302 302 302
303 302 305 306 305 302 304 304 305 306 305 305 304 303 302 301 298 297 296 295 295 295 296 296 296 296 295 294 294 294 295 295 295 295 296 297 298 300 300 300 301 302 301 301
300 301 301 302 301 300 301 302 304 303 303 303 302 301 300 299 296 296 295 294 294 294 294 294 294 294 293 293 293 292 293 293 293 293 293 294 296 297 298 298 297 297 297 296
298 301 305 306 303 304 301 303 301 302 301 301 300 298 297 296 296 294 293 293 292 292 292 292 292 292 292 292 292 291 291 291 292 293 293 293 293 295 296 296 297 296 296 295
Wind_Speed
8 8 13 11 5 4 5 4 7 3 6 3 8 9 11 23 24 26 24 26 33 34 32 30 27 24 23 22 25 29 30 30 32 35 37 39 38 38 40 40 40 38 37 38
3 12 7 4 6 6 9 3 4 7 7 1 7 12 11 13 13 24 28 32 40 42 43 40 36 35 32 28 29 29 33 34 33 34 35 37 38 38 40 42 43 41 41 42
9 5 15 8 6 10 7 12 4 6 6 3 6 12 7 7 13 19 27 31 32 37 39 40 39 37 34 30 27 28 28 35 36 34 37 39 41 41 41 43 44 45 45 45
9 14 4 7 10 10 15 5 7 6 1 4 4 7 5 5 10 9 28 30 31 35 32 28 23 18 21 28 31 35 32 29 34 36 40 42 41 42 40 39 41 43 45 47
6 6 11 12 8 7 6 6 10 7 2 4 2 4 6 4 5 10 15 18 22 26 21 26 22 22 20 18 17 19 22 27 31 39 43 43 46 44 42 43 42 42 44 45
8 5 7 9 7 8 5 4 2 4 2 8 8 6 4 5 6 5 13 10 2 2 8 8 6 6 6 5 8 12 14 17 21 27 34 43 46 43 45 45 45 43 43 45
11 18 7 4 6 4 8 7 1 1 4 8 3 8 14 4 12 7 9 9 7 4 10 14 14 10 8 5 2 0 2 6 16 22 27 33 40 46 47 46 48 48 48 47
10 7 16 10 9 8 8 11 5 8 4 4 4 8 7 11 18 26 25 23 12 11 16 13 10 9 8 8 5 5 6 7 9 11 19 27 29 34 41 46 48 50 52 51
8 8 1 7 5 11 6 11 8 3 2 1 5 7 8 10 11 17 10 9 15 18 14 11 7 8 8 9 9 9 11 13 14 14 14 16 25 31 34 37 40 44 46 50
4 2 6 10 9 8 8 8 6 2 5 5 5 6 9 5 5 9 6 13 15 16 11 10 9 5 6 10 12 14 16 17 19 19 17 17 17 22 30 34 38 42 43 46
4 4 3 8 13 16 5 6 5 5 5 5 2 6 8 13 11 9 9 14 20 12 9 9 5 5 9 12 15 17 17 18 19 20 21 22 22 22 24 28 35 40 41 42
9 2 4 12 2 6 13 16 15 7 7 3 2 7 3 4 5 9 13 15 14 11 8 4 3 8 13 16 19 19 19 20 20 22 22 23 23 25 25 26 28 32 38 41
14 5 2 6 4 2 12 16 7 4 3 10 5 10 0 2 7 9 9 9 12 11 6 2 5 10 14 15 15 16 18 19 20 21 23 23 24 24 24 25 26 28 31 34
25 4 12 14 6 7 9 11 17 13 7 12 11 23 6 1 2 4 5 4 7 4 1 4 6 7 9 13 15 16 17 19 20 19 20 22 22 22 23 24 24 25 27 31
12 14 15 11 3 2 4 14 17 16 25 10 25 16 14 10 13 8 5 11 12 8 6 9 11 10 11 11 12 16 18 19 18 19 21 22 21 22 23 23 24 24 24 28
12 5 13 4 8 5 3 7 10 19 23 15 26 18 18 17 22 6 5 11 13 12 10 8 10 10 10 12 14 16 17 19 21 21 21 22 23 23 23 24 23 23 24 25
16 8 4 13 7 4 7 20 14 8 8 16 17 29 6 5 10 21 25 22 22 15 10 8 7 8 9 11 13 17 18 20 21 22 23 23 23 23 23 23 24 23 23 24
13 13 4 4 7 14 17 9 16 18 19 16 17 24 8 7 18 22 24 24 22 15 11 7 6 8 9 10 13 16 17 19 20 21 22 23 23 23 23 23 22 21 22 23
14 14 6 5 8 3 6 8 8 10 22 18 24 28 25 16 15 12 14 16 16 12 8 5 6 8 10 11 13 16 18 20 21 22 23 23 23 23 23 24 24 22 22 20
4 6 10 3 7 11 20 8 19 5 14 17 25 26 21 16 9 7 20 15 13 10 6 5 6 8 11 13 14 16 19 20 21 22 22 23 23 23 23 23 24 23 22 21
9 7 14 11 4 6 6 5 19 9 9 12 19 15 14 9 15 15 24 18 13 9 6 5 3 5 7 10 14 15 18 19 20 21 21 21 22 22 22 21 21 22 22 21
14 11 6 6 3 10 15 5 16 6 4 9 7 8 15 17 18 22 22 17 12 9 6 5 4 7 9 12 13 15 18 20 21 22 23 22 22 22 22 22 20 19 20 21
6 8 7 9 8 5 22 11 19 12 10 10 12 12 20 24 23 21 19 15 12 10 8 6 7 9 12 14 16 18 19 20 21 22 24 25 24 23 22 22 21 21 18 19
4 4 4 4 8 7 18 15 14 14 12 15 13 18 20 23 21 18 15 12 9 8 7 9 10 11 13 14 16 19 21 22 23 24 23 24 26 27 23 21 21 21 21 20
4 6 6 4 2 3 7 20 18 16 14 16 18 20 19 17 16 13 12 9 8 8 10 12 14 15 16 17 19 21 22 24 26 27 26 24 24 25 26 23 21 22 20 21
6 7 8 9 13 10 7 24 18 19 19 19 21 20 17 15 14 12 9 8 9 11 14 15 16 18 20 21 22 25 25 26 27 28 28 27 26 25 25 26 27 19 20 21
Wind_Direction
188 204 210 206 223 221 156 188 230 266 240 260 257 257 259 258 258 262 265 271 275 273 265 264 263 263 266 258 256 253 250 254 251 249 250 248 252 252 251 252 252 252 252 253
169 226 219 223 201 219 232 211 255 286 283 260 282 279 252 251 246 259 268 273 271 270 268 265 264 266 264 264 263 258 255 256 255 254 257 258 261 260 260 258 256 257 255 253
211 199 194 206 207 214 233 225 192 237 319 290 314 283 223 243 252 266 264 263 274 269 269 271 268 262 257 257 262 264 262 257 258 261 257 253 253 255 258 259 259 256 255 256
236 227 176 196 217 196 229 196 219 247 249 252 29 289 246 242 270 265 270 274 274 271 269 275 274 269 263 259 259 259 260 262 260 260 259 258 260 261 270 272 269 264 261 258
214 179 221 230 208 189 219 168 206 222 191 349 185 279 273 277 263 260 263 268 284 262 270 268 276 273 281 280 272 270 267 264 260 256 258 262 261 265 270 268 269 268 267 265
223 216 207 202 180 182 158 126 115 59 110 254 224 190 235 230 222 248 263 244 19 67 246 244 220 160 159 199 241 253 259 261 256 254 259 261 264 268 266 267 269 272 271 269
209 232 249 185 185 155 209 145 137 293 211 238 246 196 251 262 261 233 265 234 310 171 136 127 122 99 97 106 134 281 340 305 268 264 261 260 263 264 267 271 271 272 272 272
203 214 218 204 205 198 199 186 163 200 204 235 145 225 252 236 257 259 269 266 261 161 139 125 103 66 46 34 15 340 322 314 301 302 277 268 265 264 267 269 271 272 274 275
190 233 211 192 180 163 177 200 178 118 350 114 222 284 292 255 257 264 270 185 174 160 137 107 84 50 27 7 357 334 314 306 305 302 292 283 272 267 265 266 270 272 275 275
210 240 212 201 173 207 188 159 178 209 180 235 257 264 239 309 262 254 252 203 191 158 131 107 89 48 11 350 338 324 314 308 298 294 287 279 281 277 272 269 267 270 274 275
203 170 310 130 207 189 164 201 209 167 166 196 242 255 216 235 253 242 251 221 167 144 107 106 84 19 348 333 325 321 310 302 297 292 288 285 277 279 280 277 273 271 270 270
193 180 199 207 343 232 212 212 200 203 218 224 181 257 281 183 70 91 106 126 120 129 130 106 22 341 334 335 329 320 310 302 297 293 291 290 288 283 282 281 279 276 272 268
178 200 154 345 313 213 210 218 201 190 110 215 165 258 202 97 102 127 112 108 136 140 136 74 345 339 338 336 335 329 317 308 304 301 299 296 295 292 291 289 285 278 273 269
176 163 211 215 215 145 209 203 215 215 220 231 222 243 281 307 200 192 47 184 182 184 224 331 330 328 334 340 341 341 335 325 320 317 313 309 304 301 300 299 294 287 279 270
171 216 214 224 142 127 204 202 199 208 228 214 245 241 232 241 258 187 212 183 191 217 262 300 314 324 329 330 333 341 346 343 336 328 323 321 315 309 306 305 302 297 289 278
184 236 210 222 208 185 203 224 218 220 228 230 249 264 247 234 262 224 233 220 218 226 242 259 286 299 312 329 332 335 340 344 345 342 334 325 322 316 312 310 308 304 296 288
185 180 131 237 178 157 243 234 213 217 213 216 235 240 240 213 216 249 264 263 248 237 240 250 263 293 307 318 328 332 336 337 339 341 340 333 325 319 313 312 310 309 303 293
198 197 184 196 140 218 236 233 201 206 230 217 240 255 235 211 235 247 249 251 247 220 217 234 277 297 309 319 323 326 329 332 333 335 336 335 331 325 318 314 311 309 306 302
203 192 215 201 201 291 284 198 173 174 244 213 227 249 251 231 222 224 216 209 204 202 212 241 283 306 320 324 326 327 329 329 332 333 336 335 333 331 328 320 315 312 307 305
203 213 207 160 211 199 232 181 171 110 265 199 214 238 237 166 213 221 201 195 193 199 210 237 275 298 309 317 321 322 323 324 326 332 335 335 334 333 331 328 322 314 309 305
196 212 228 218 177 274 243 172 143 143 242 183 212 232 181 190 222 216 193 190 194 202 215 232 271 310 326 329 328 331 327 324 325 327 329 330 333 332 331 330 328 321 312 305
184 190 200 203 161 253 176 120 174 195 162 183 174 182 183 181 157 164 172 180 188 196 207 231 269 299 309 313 315 312 314 318 322 324 325 325 327 327 328 331 330 326 319 312
203 190 185 192 211 168 178 200 202 193 195 190 180 164 164 155 157 162 167 176 186 198 218 245 273 291 300 305 307 307 308 312 314 317 320 323 322 323 324 324 328 329 326 319
253 164 177 116 237 212 197 208 203 201 206 191 178 165 165 162 164 168 172 182 200 223 254 275 286 289 293 297 303 306 308 309 310 312 315 316 319 319 323 324 322 323 328 324
188 135 169 261 291 54 238 207 197 191 186 178 171 178 173 174 168 176 182 199 222 246 263 275 283 289 296 301 305 305 305 306 307 309 312 312 313 316 316 317 324 324 323 323
198 179 181 218 207 185 177 202 195 187 181 182 183 177 174 182 183 186 202 227 252 267 275 280 287 294 299 303 307 306 307 307 308 307 308 310 311 312 314 314 312 312 314 316